Location: Fernhill
(41.0167°S, 175.6333°E)
Time: 16:16:25
(UTC+00:00)

Cosmos 1833 Rocket - Pass Details

Date: 16 February 2026
Orbit: 832 x 837 km, 71.0° (Epoch: 8 March)

Event Time Altitude Azimuth Distance (km) Brightness Sun altitude
Exits shadow 15:11:37 - 238° (WSW) 2,513 5.0 -25.2°
Reaches altitude 10° 15:12:10 10° 233° (SW) 2,471 5.0 -25.2°
Maximum altitude 15:13:10 10° 222° (SW) 2,442 5.1 -25.0°
Drops below altitude 10° 15:14:10 10° 212° (SSW) 2,476 5.3 -24.9°
Sets 15:19:21 0° 172° (S) 3,421 6.6 -24.2°
